When you browse on this site, cookies collect data to enhance your experience and personalize the content and advertising you see.
Visit our Privacy Policy to learn more. By continuing to use the site, you agree to this use of cookies and data.
  • In Österreich
  • Länderverzeichnis
  • Für 7 Tage
  • Wassertemperatur
  • Wetterkarte
  • News
  • Widgets
  • user-avatar
    Anmelden

    Stündliche Wetter Silvania

    Heute, 23 September, Montag

    Zeit Temperatur Niederschläge Wind Luftdruck Luftfeuchtigkeit
    00:00 +18°C° 0.4 mm 2 m/S 636 mmHg 79%
    01:00 +18°C° 0 mm 1 m/S 636 mmHg 79%
    02:00 +18°C° 0.6 mm 1 m/S 636 mmHg 79%
    03:00 +18°C° 0.6 mm 1 m/S 636 mmHg 80%
    04:00 +18°C° 0.6 mm 1 m/S 636 mmHg 81%
    05:00 +18°C° 0.5 mm 1 m/S 637 mmHg 80%
    06:00 +17°C° 0.5 mm 0 m/S 637 mmHg 79%
    07:00 +18°C° 0 mm 0 m/S 638 mmHg 75%
    08:00 +19°C° 0.1 mm 0 m/S 638 mmHg 74%
    09:00 +22°C° 0.1 mm 1 m/S 639 mmHg 72%
    10:00 +24°C° 0.1 mm 1 m/S 639 mmHg 71%
    11:00 +24°C° 0.6 mm 1 m/S 638 mmHg 72%
    12:00 +24°C° 0.6 mm 1 m/S 637 mmHg 74%
    13:00 +24°C° 0.6 mm 1 m/S 636 mmHg 75%
    14:00 +24°C° 0.4 mm 1 m/S 636 mmHg 74%
    15:00 +24°C° 0.4 mm 1 m/S 635 mmHg 72%
    16:00 +25°C° 0.4 mm 1 m/S 635 mmHg 71%
    17:00 +24°C° 0.6 mm 1 m/S 635 mmHg 74%
    18:00 +23°C° 0.6 mm 1 m/S 635 mmHg 77%
    19:00 +22°C° 0.6 mm 1 m/S 636 mmHg 80%
    20:00 +21°C° 0.3 mm 1 m/S 636 mmHg 79%
    21:00 +20°C° 0.3 mm 2 m/S 636 mmHg 78%
    22:00 +20°C° 0.3 mm 2 m/S 637 mmHg 77%
    23:00 +20°C° 0.1 mm 1 m/S 637 mmHg 77%

    Morgen, 24 September, Dienstag

    Zeit Temperatur Niederschläge Wind Luftdruck Luftfeuchtigkeit
    00:00 +20°C° 0.1 mm 1 m/S 636 mmHg 77%
    01:00 +19°C° 0.1 mm 1 m/S 636 mmHg 77%
    02:00 +17°C° 0.1 mm 0 m/S 636 mmHg 77%
    03:00 +17°C° 0.1 mm 0 m/S 636 mmHg 77%
    04:00 +17°C° 0.1 mm 0 m/S 636 mmHg 78%
    05:00 +17°C° 0.1 mm 0 m/S 636 mmHg 78%
    06:00 +18°C° 0.1 mm 0 m/S 637 mmHg 77%
    07:00 +18°C° 0.1 mm 0 m/S 637 mmHg 77%
    08:00 +21°C° 0.2 mm 1 m/S 638 mmHg 76%
    09:00 +22°C° 0.2 mm 1 m/S 638 mmHg 76%
    10:00 +23°C° 0.2 mm 1 m/S 639 mmHg 75%
    11:00 +23°C° 0.7 mm 1 m/S 638 mmHg 75%
    12:00 +24°C° 0.7 mm 1 m/S 637 mmHg 76%
    13:00 +24°C° 0.7 mm 1 m/S 636 mmHg 76%
    14:00 +23°C° 0.9 mm 1 m/S 636 mmHg 78%
    15:00 +23°C° 0.9 mm 1 m/S 636 mmHg 80%
    16:00 +22°C° 0.9 mm 1 m/S 635 mmHg 82%
    17:00 +22°C° 0.8 mm 1 m/S 635 mmHg 82%
    18:00 +21°C° 0.8 mm 1 m/S 636 mmHg 82%
    19:00 +21°C° 0.8 mm 1 m/S 636 mmHg 82%
    20:00 +21°C° 0.4 mm 1 m/S 636 mmHg 81%
    21:00 +21°C° 0.4 mm 1 m/S 637 mmHg 79%
    22:00 +21°C° 0.4 mm 1 m/S 637 mmHg 78%
    23:00 +20°C° 0.2 mm 1 m/S 637 mmHg 79%

    übermorgen, 25 September, Mittwoch

    Zeit Temperatur Niederschläge Wind Luftdruck Luftfeuchtigkeit
    00:00 +20°C° 0.2 mm 1 m/S 637 mmHg 80%
    01:00 +20°C° 0.2 mm 1 m/S 636 mmHg 80%
    02:00 +20°C° 0.2 mm 1 m/S 636 mmHg 81%
    03:00 +20°C° 0.2 mm 1 m/S 636 mmHg 81%
    04:00 +18°C° 0.2 mm 0 m/S 636 mmHg 82%
    05:00 +18°C° 0.4 mm 0 m/S 637 mmHg 82%
    06:00 +18°C° 0.4 mm 0 m/S 637 mmHg 83%
    07:00 +18°C° 0.4 mm 0 m/S 638 mmHg 84%
    08:00 +19°C° 0.3 mm 0 m/S 638 mmHg 83%
    09:00 +19°C° 0.3 mm 0 m/S 638 mmHg 82%
    10:00 +20°C° 0.3 mm 0 m/S 638 mmHg 81%
    11:00 +23°C° 0.6 mm 1 m/S 638 mmHg 79%
    12:00 +23°C° 0.6 mm 1 m/S 637 mmHg 77%
    13:00 +24°C° 0.6 mm 1 m/S 636 mmHg 74%
    14:00 +24°C° 0.6 mm 1 m/S 636 mmHg 74%
    15:00 +24°C° 0.6 mm 1 m/S 636 mmHg 73%
    16:00 +25°C° 0.6 mm 1 m/S 635 mmHg 72%
    17:00 +23°C° 0.9 mm 1 m/S 635 mmHg 75%
    18:00 +22°C° 0.9 mm 1 m/S 635 mmHg 78%
    19:00 +21°C° 0.9 mm 1 m/S 635 mmHg 80%
    20:00 +20°C° 0.4 mm 1 m/S 636 mmHg 81%
    21:00 +19°C° 0.4 mm 2 m/S 636 mmHg 82%
    22:00 +18°C° 0.4 mm 2 m/S 637 mmHg 83%
    23:00 +19°C° 0.2 mm 1 m/S 636 mmHg 82%

    26 September, Donnerstag

    Zeit Temperatur Niederschläge Wind Luftdruck Luftfeuchtigkeit
    00:00 +19°C° 0.2 mm 1 m/S 636 mmHg 82%
    01:00 +18°C° 0.2 mm 1 m/S 636 mmHg 82%
    02:00 +18°C° 0.3 mm 1 m/S 636 mmHg 82%
    03:00 +18°C° 0.3 mm 1 m/S 635 mmHg 82%
    04:00 +18°C° 0.3 mm 1 m/S 635 mmHg 82%
    05:00 +19°C° 0.2 mm 1 m/S 636 mmHg 82%
    06:00 +19°C° 0.2 mm 1 m/S 636 mmHg 82%
    07:00 +20°C° 0.2 mm 1 m/S 637 mmHg 82%
    08:00 +21°C° 0.2 mm 1 m/S 637 mmHg 81%
    09:00 +21°C° 0.2 mm 1 m/S 637 mmHg 79%
    10:00 +22°C° 0.2 mm 1 m/S 638 mmHg 77%
    11:00 +23°C° 0.7 mm 1 m/S 637 mmHg 78%
    12:00 +23°C° 0.7 mm 1 m/S 637 mmHg 79%
    13:00 +24°C° 0.7 mm 1 m/S 636 mmHg 79%
    14:00 +23°C° 0.7 mm 1 m/S 636 mmHg 80%
    15:00 +23°C° 0.7 mm 1 m/S 635 mmHg 80%
    16:00 +22°C° 0.7 mm 1 m/S 635 mmHg 81%
    17:00 +21°C° 0.1 mm 1 m/S 635 mmHg 81%
    18:00 +21°C° 0.1 mm 1 m/S 635 mmHg 81%
    19:00 +19°C° 0.1 mm 2 m/S 635 mmHg 81%
    20:00 +19°C° 0.1 mm 2 m/S 636 mmHg 81%
    21:00 +19°C° 0.1 mm 2 m/S 636 mmHg 80%
    22:00 +18°C° 0.1 mm 2 m/S 636 mmHg 79%
    23:00 +19°C° 0 mm 1 m/S 636 mmHg 80%

    27 September, Freitag

    Zeit Temperatur Niederschläge Wind Luftdruck Luftfeuchtigkeit
    00:00 +19°C° 0 mm 1 m/S 636 mmHg 81%
    01:00 +19°C° 0 mm 1 m/S 635 mmHg 82%
    02:00 +18°C° 0.1 mm 1 m/S 635 mmHg 83%
    03:00 +18°C° 0.1 mm 1 m/S 635 mmHg 83%
    04:00 +18°C° 0.1 mm 1 m/S 635 mmHg 84%
    05:00 +19°C° 0.1 mm 1 m/S 636 mmHg 83%
    06:00 +17°C° 0.1 mm 0 m/S 636 mmHg 81%
    07:00 +18°C° 0.1 mm 0 m/S 637 mmHg 80%
    08:00 +19°C° 0.2 mm 0 m/S 638 mmHg 79%
    09:00 +23°C° 0.2 mm 1 m/S 638 mmHg 77%
    10:00 +24°C° 0.2 mm 1 m/S 638 mmHg 75%
    11:00 +24°C° 0.8 mm 1 m/S 638 mmHg 74%
    12:00 +25°C° 0.8 mm 1 m/S 637 mmHg 72%
    13:00 +25°C° 0.8 mm 1 m/S 636 mmHg 71%
    14:00 +25°C° 0.8 mm 1 m/S 636 mmHg 72%
    15:00 +25°C° 0.8 mm 1 m/S 635 mmHg 73%
    16:00 +22°C° 0.8 mm 0 m/S 635 mmHg 73%
    17:00 +23°C° 0.5 mm 1 m/S 635 mmHg 76%
    18:00 +22°C° 0.5 mm 1 m/S 635 mmHg 79%
    19:00 +19°C° 0.5 mm 2 m/S 635 mmHg 82%
    20:00 +20°C° 0 mm 1 m/S 635 mmHg 80%
    21:00 +20°C° 0 mm 1 m/S 635 mmHg 78%
    22:00 +19°C° 0 mm 1 m/S 636 mmHg 77%
    23:00 +19°C° 0.1 mm 1 m/S 636 mmHg 77%

    28 September, Samstag

    Zeit Temperatur Niederschläge Wind Luftdruck Luftfeuchtigkeit
    00:00 +19°C° 0.1 mm 1 m/S 635 mmHg 78%
    01:00 +18°C° 0.1 mm 1 m/S 635 mmHg 78%
    02:00 +18°C° 0.1 mm 1 m/S 635 mmHg 79%
    03:00 +18°C° 0.1 mm 1 m/S 635 mmHg 79%
    04:00 +18°C° 0.1 mm 1 m/S 634 mmHg 80%
    05:00 +19°C° 0 mm 1 m/S 635 mmHg 78%
    06:00 +19°C° 0 mm 1 m/S 636 mmHg 76%
    07:00 +18°C° 0 mm 0 m/S 637 mmHg 74%
    08:00 +22°C° 0 mm 1 m/S 637 mmHg 71%
    09:00 +23°C° 0 mm 1 m/S 637 mmHg 69%
    10:00 +25°C° 0 mm 2 m/S 638 mmHg 66%
    11:00 +25°C° 0.5 mm 2 m/S 637 mmHg 66%
    12:00 +26°C° 0.5 mm 2 m/S 636 mmHg 66%
    13:00 +26°C° 0.5 mm 2 m/S 636 mmHg 67%
    14:00 +25°C° 1 mm 1 m/S 635 mmHg 69%
    15:00 +25°C° 1 mm 1 m/S 635 mmHg 72%
    16:00 +22°C° 1 mm 0 m/S 634 mmHg 75%
    17:00 +23°C° 0.9 mm 1 m/S 634 mmHg 78%
    18:00 +22°C° 0.9 mm 1 m/S 634 mmHg 80%
    19:00 +21°C° 0.9 mm 1 m/S 634 mmHg 83%
    20:00 +20°C° 0.3 mm 1 m/S 635 mmHg 83%
    21:00 +20°C° 0.3 mm 1 m/S 635 mmHg 83%
    22:00 +20°C° 0.3 mm 1 m/S 635 mmHg 83%
    23:00 +19°C° 0.4 mm 1 m/S 635 mmHg 83%
    Mehr zeigen